Weather History for Avalon, VC

Change the Weather History Date:

Wednesday, March 5, 2014

  Actual Average (YMML) Record (YMML)
Temperature  
Mean Temperature 67 °F -  
Max Temperature 77 °F 74 °F 89 °F (2002)
Min Temperature 57 °F 54 °F 46 °F (2005)
Cooling Degree Days 2    
Growing Degree Days 17 (Base 50)    
Moisture  
Dew Point 54 °F    
Average Humidity 64    
Maximum Humidity 88    
Minimum Humidity 44    
Precipitation  
Precipitation 0.00 in - - ()
Sea Level Pressure  
Sea Level Pressure 30.03 in    
Wind  
Wind Speed 12 mph ()    
Max Wind Speed 22 mph    
Max Gust Speed -    
Visibility 6.1 miles    
Events Rain    
Averages and records for this station are not official NWS values.
T = Trace of Precipitation, MM = Missing Value Source: Averaged Metar Reports

Daily Weather History Graph

Daily Weather History Graph

Search for Another Location

Airport:

Trip Planner

Search our weather history database for the weather conditions in past years. The results will help you decide how hot, cold, wet, or windy it might be!

Date:

Astronomy

Mar. 05, 2014 Rise Set
Actual Time 7:09 AM EST 7:56 PM EST
Civil Twilight 6:43 AM EST 8:23 PM EST
Nautical Twilight 6:11 AM EST 8:54 PM EST
Astronomical Twilight 5:38 AM EST 9:27 PM EST
Moon 11:13 AM EST (3/5) 10:11 PM EST (3/5)
Length of Visible Light 13h 40m
Length of Day
12h 46m
Waxing Crescent, 17% of the Moon is Illuminated
Mar 5
Waxing Crescent
Mar 9
First Quarter
Mar 17
Full
Mar 24
Last Quarter
Mar 31
New

Hourly Weather History & Observations

Time (EST) Temp. Dew Point Humidity Pressure Visibility Wind Dir Wind Speed Gust Speed Precip Events Conditions
12:00 AM 76 °F 58 °F 44% 29.94 in - NNW 13.8 mph - -   Overcast
12:00 AM 77.0 °F 59.0 °F 54% 29.92 in 6.2 mi NNW 13.8 mph - N/A Rain Rain Showers
12:30 AM 77.0 °F 57.2 °F 50% 29.92 in 6.2 mi NNW 15.0 mph - N/A   Mostly Cloudy
1:00 AM 77.0 °F 57.2 °F 50% 29.95 in 6.2 mi North 11.5 mph - N/A   Overcast
1:30 AM 75.2 °F 59.0 °F 57% 29.95 in 6.2 mi NW 8.1 mph - N/A   Mostly Cloudy
2:00 AM 75.2 °F 57.2 °F 53% 29.95 in 6.2 mi WNW 10.4 mph - N/A   Overcast
2:30 AM 77.0 °F 57.2 °F 50% 29.92 in 6.2 mi NW 15.0 mph - N/A   Mostly Cloudy
3:00 AM 75 °F 58 °F 45% 29.93 in - North 8.1 mph - -  
3:00 AM 75.2 °F 57.2 °F 53% 29.92 in 6.2 mi North 8.1 mph - N/A   Scattered Clouds
3:30 AM 73.4 °F 57.2 °F 57% 29.92 in 6.2 mi North 10.4 mph - N/A   Mostly Cloudy
4:00 AM 73.4 °F 57.2 °F 57% 29.92 in 6.2 mi North 8.1 mph - N/A   Mostly Cloudy
4:30 AM 73.4 °F 57.2 °F 57% 29.92 in 6.2 mi NNW 9.2 mph - N/A   Scattered Clouds
5:00 AM 73.4 °F 59.0 °F 61% 29.92 in 6.2 mi NNW 12.7 mph - N/A   Mostly Cloudy
5:30 AM 71.6 °F 59.0 °F 64% 29.92 in 6.2 mi NNW 5.8 mph - N/A   Mostly Cloudy
6:00 AM 72 °F 59 °F 54% 29.92 in - NW 2.3 mph - -  
6:00 AM 71.6 °F 59.0 °F 64% 29.92 in 6.2 mi NW 2.3 mph - N/A   Unknown
6:30 AM 69.8 °F 59.0 °F 68% 29.92 in 6.2 mi SSW 4.6 mph - N/A   Scattered Clouds
7:00 AM 68.0 °F 59.0 °F 73% 29.92 in 6.2 mi ESE 4.6 mph - N/A   Scattered Clouds
7:30 AM 68.0 °F 59.0 °F 73% 29.95 in 6.2 mi SW 10.4 mph - N/A   Unknown
8:00 AM 69.8 °F 59.0 °F 68% 29.98 in 6.2 mi WSW 12.7 mph - N/A   Mostly Cloudy
8:30 AM 68.0 °F 60.8 °F 78% 30.01 in 6.2 mi SSW 16.1 mph - N/A   Overcast
9:00 AM 66 °F 59 °F 72% 30.02 in - SSW 20.7 mph - -  
9:00 AM 66.2 °F 59.0 °F 78% 30.01 in 6.2 mi SSW 20.7 mph - N/A   Overcast
9:27 AM 64.4 °F 60.8 °F 88% 30.04 in 3.7 mi SW 17.3 mph - N/A   Drizzle
9:30 AM 64.4 °F 60.8 °F 88% 30.04 in 3.7 mi SW 16.1 mph - N/A   Drizzle
9:54 AM 64.4 °F 60.8 °F 88% 30.04 in 5.6 mi SSW 13.8 mph - N/A Rain Light Rain Showers
10:00 AM 64.4 °F 60.8 °F 88% 30.04 in 6.2 mi SSW 12.7 mph - N/A   Overcast
10:30 AM 64.4 °F 59.0 °F 83% 30.06 in 6.2 mi SW 13.8 mph - N/A Rain Light Rain Showers
11:00 AM 64.4 °F 59.0 °F 83% 30.06 in 6.2 mi SSW 15.0 mph - N/A   Overcast
11:30 AM 66.2 °F 57.2 °F 73% 30.06 in 6.2 mi SSW 17.3 mph - N/A   Overcast
12:00 PM 65 °F 58 °F 71% 30.09 in - SSW 20.7 mph - -   Overcast
12:00 PM 64.4 °F 57.2 °F 77% 30.06 in 6.2 mi SSW 20.7 mph - N/A   Overcast
12:27 PM 62.6 °F 59.0 °F 88% 30.06 in 6.2 mi South 17.3 mph - N/A   Drizzle
12:30 PM 62.6 °F 59.0 °F 88% 30.06 in 6.2 mi SSW 17.3 mph - N/A   Drizzle
12:57 PM 64.4 °F 55.4 °F 73% 30.06 in 6.2 mi SSW 20.7 mph - N/A   Overcast
1:00 PM 64.4 °F 57.2 °F 77% 30.06 in 6.2 mi SSW 21.9 mph - N/A   Overcast
1:30 PM 64.4 °F 55.4 °F 73% 30.06 in 6.2 mi South 20.7 mph - N/A   Overcast
2:00 PM 64.4 °F 53.6 °F 68% 30.09 in 6.2 mi SSW 20.7 mph - N/A   Overcast
2:30 PM 64.4 °F 51.8 °F 64% 30.09 in 6.2 mi SSW 20.7 mph - N/A   Overcast
3:00 PM 64 °F 51 °F 53% 30.10 in - SSW 19.6 mph - -   Overcast
3:00 PM 64.4 °F 51.8 °F 64% 30.09 in 6.2 mi SSW 19.6 mph - N/A   Overcast
3:30 PM 64.4 °F 50.0 °F 59% 30.09 in 6.2 mi South 19.6 mph - N/A   Overcast
4:00 PM 64.4 °F 48.2 °F 56% 30.09 in 6.2 mi SSW 19.6 mph - N/A   Overcast
4:30 PM 64.4 °F 48.2 °F 56% 30.09 in 6.2 mi South 19.6 mph - N/A   Overcast
5:00 PM 64.4 °F 48.2 °F 56% 30.09 in 6.2 mi SSW 18.4 mph - N/A   Overcast
5:30 PM 64.4 °F 46.4 °F 52% 30.09 in 6.2 mi SSW 18.4 mph - N/A   Overcast
6:00 PM 64 °F 48 °F 45% 30.12 in - South 17.3 mph - -   Overcast
6:00 PM 64.4 °F 48.2 °F 56% 30.09 in 6.2 mi South 17.3 mph - N/A   Overcast
6:30 PM 64.4 °F 48.2 °F 56% 30.09 in 6.2 mi South 17.3 mph - N/A   Overcast
7:00 PM 62.6 °F 46.4 °F 55% 30.09 in 6.2 mi South 18.4 mph - N/A   Overcast
7:30 PM 62.6 °F 48.2 °F 59% 30.12 in 6.2 mi South 16.1 mph - N/A   Overcast
8:00 PM 62.6 °F 46.4 °F 55% 30.12 in 6.2 mi South 17.3 mph - N/A   Overcast
8:30 PM 60.8 °F 46.4 °F 59% 30.12 in 6.2 mi South 15.0 mph - N/A   Overcast
9:00 PM 60 °F 44 °F 45% 30.16 in - South 13.8 mph - -  
9:00 PM 59.0 °F 44.6 °F 59% 30.15 in 6.2 mi South 13.8 mph - N/A   Scattered Clouds
9:30 PM 59.0 °F 44.6 °F 59% 30.15 in 6.2 mi South 11.5 mph - N/A   Unknown
10:00 PM 57.2 °F 46.4 °F 67% 30.15 in 6.2 mi South 8.1 mph - N/A   Mostly Cloudy
10:30 PM 60.8 °F 48.2 °F 63% 30.15 in 6.2 mi SSE 8.1 mph - N/A   Overcast
11:00 PM 60.8 °F 48.2 °F 63% 30.15 in 6.2 mi SSE 11.5 mph - N/A   Overcast
11:30 PM 60.8 °F 48.2 °F 63% 30.15 in 6.2 mi SSE 9.2 mph - N/A   Overcast